GW2491 Weather Reports


time (UTC)temp
F
wind
direction
speed
knots
gust
knots
rain 1hr
in
rain 24hr
in
rain mn
in
humidity
%
barometer
mb
20260505184555 80 0 0.0 2.6 0.00 0.00 0.00 48 1017.3
20260505183057 79 0 0.9 4.3 0.00 0.00 0.00 47 1017.3
20260505181556 77 60 1.7 4.3 0.00 0.00 0.00 48 1017.3
20260505180106 78 0 0.0 5.2 0.00 0.00 0.00 48 1017.5
20260505174610 79 131 0.0 3.5 0.00 0.00 0.00 52 1017.8
20260505173058 79 0 0.0 3.5 0.00 0.00 0.00 54 1017.8
20260505171558 77 0 0.0 4.3 0.00 0.00 0.00 53 1018.0
20260505164559 77 0 0.9 2.6 0.00 0.00 0.00 49 1018.4
20260505163103 77 0 0.0 2.6 0.00 0.00 0.00 51 1018.6
20260505161600 76 51 0.9 3.5 0.00 0.00 0.00 53 1018.7
20260505153059 75 0 0.0 3.5 0.00 0.01 0.00 56 1019.1
20260505151556 75 0 0.0 4.3 0.00 0.01 0.00 57 1019.0
20260505124608 58 0 0.0 0.0 0.00 0.01 0.00 93 1018.7
20260505123100 57 0 0.0 0.0 0.00 0.01 0.00 93 1018.6
20260505121559 55 0 0.0 0.0 0.00 0.01 0.00 93 1018.7
20260505120059 53 0 0.0 0.0 0.00 0.01 0.00 92 1018.6
20260505114603 51 0 0.0 0.0 0.00 0.01 0.00 91 1018.5
20260505113058 50 0 0.0 0.0 0.00 0.01 0.00 90 1018.5
20260505111557 50 0 0.0 0.0 0.00 0.01 0.00 90 1018.3
20260505101609 50 0 0.0 0.0 0.00 0.01 0.00 88 1017.5
20260505100104 50 0 0.0 0.0 0.00 0.01 0.00 88 1017.3
20260505094559 50 0 0.0 0.0 0.00 0.01 0.00 88 1017.3
20260505093105 51 0 0.0 0.0 0.00 0.01 0.00 88 1017.1
20260505091556 51 0 0.0 0.0 0.00 0.01 0.00 88 1017.0
20260505090056 51 0 0.0 0.0 0.00 0.01 0.00 87 1016.9
20260505084606 51 0 0.0 0.0 0.00 0.01 0.00 87 1016.8
20260505083105 51 0 0.0 0.0 0.00 0.01 0.00 86 1016.7
20260505081623 52 0 0.0 0.0 0.00 0.01 0.00 86 1016.7
20260505074556 52 0 0.0 0.0 0.00 0.01 0.00 85 1016.7
20260505073104 53 0 0.0 0.0 0.00 0.01 0.00 85 1016.7
20260505071557 53 0 0.0 0.0 0.00 0.01 0.00 84 1016.8
20260505064555 54 0 0.0 0.0 0.00 0.01 0.00 83 1016.9
20260505061559 55 0 0.0 0.0 0.00 0.01 0.00 82 1017.3
20260505060103 55 0 0.0 0.0 0.00 0.01 0.00 82 1017.4
20260505054556 55 0 0.0 0.0 0.00 0.01 0.00 82 1017.5
20260505053101 55 0 0.0 0.0 0.00 0.01 0.00 81 1017.6
20260505051559 55 0 0.0 0.0 0.00 0.01 0.00 80 1017.7
20260505050105 56 0 0.0 0.0 0.00 0.01 0.00 80 1017.8
20260505041558 57 0 0.0 0.0 0.00 0.01 0.00 78 1017.6
20260505040100 57 0 0.0 0.0 0.00 0.01 0.00 77 1017.6
20260505034559 58 0 0.0 0.0 0.00 0.01 0.01 76 1017.7
20260505033059 58 0 0.0 0.0 0.00 0.01 0.01 75 1017.7
20260505031559 59 0 0.0 0.0 0.00 0.01 0.01 74 1017.8
20260505030056 59 0 0.0 0.0 0.00 0.01 0.01 74 1017.9
20260505024559 59 0 0.0 0.0 0.00 0.01 0.01 74 1017.9
20260505023104 60 0 0.0 0.0 0.00 0.01 0.01 73 1017.8
20260505021556 61 0 0.0 0.0 0.00 0.01 0.01 71 1017.8
20260505020100 62 0 0.0 0.0 0.00 0.01 0.01 68 1017.8
20260505014606 62 0 0.0 0.0 0.00 0.01 0.01 66 1017.7
20260505013059 62 0 0.0 0.0 0.00 0.01 0.01 66 1017.5
20260505011600 63 0 0.0 0.0 0.00 0.01 0.01 64 1017.4
20260505010118 64 0 0.0 0.0 0.00 0.01 0.01 64 1017.1
20260505004611 64 0 0.0 0.0 0.00 0.01 0.01 63 1017.0
20260505003102 65 0 0.0 1.7 0.00 0.01 0.01 60 1016.6
20260505001610 66 0 0.0 2.6 0.00 0.01 0.01 60 1016.4
20260505000058 67 0 0.0 2.6 0.00 0.01 0.01 57 1016.3
20260504234604 68 0 0.0 1.7 0.00 0.01 0.01 55 1016.1
20260504233100 68 0 0.0 6.1 0.00 0.01 0.01 53 1016.1
20260504231600 69 0 0.0 6.1 0.00 0.01 0.01 55 1016.1
20260504230058 70 0 0.9 6.1 0.00 0.01 0.01 52 1016.0
20260504224601 70 0 0.0 4.3 0.00 0.02 0.01 55 1016.0
20260504223104 71 0 0.0 5.2 0.00 0.02 0.01 55 1016.0
20260504221606 72 25 0.0 4.3 0.00 0.02 0.01 53 1015.9
20260504220056 73 120 0.0 5.2 0.00 0.02 0.01 52 1015.9
20260504214605 74 0 0.9 7.8 0.00 0.02 0.01 51 1015.7
20260504213112 74 0 0.0 10.4 0.00 0.02 0.01 51 1015.8
20260504211557 74 74 0.0 7.8 0.00 0.02 0.01 49 1015.8
20260504210058 76 0 0.0 4.3 0.00 0.02 0.01 50 1015.8
20260504204605 76 0 0.0 8.7 0.00 0.02 0.01 52 1015.9
20260504203055 77 0 0.0 4.3 0.00 0.02 0.01 46 1015.9
20260504201557 79 0 0.0 2.6 0.00 0.02 0.01 37 1015.9
20260504200100 78 0 0.0 5.2 0.00 0.02 0.01 38 1015.9
20260504194600 78 0 0.9 7.0 0.00 0.02 0.01 40 1016.1
20260504193100 80 0 0.0 2.6 0.00 0.02 0.01 31 1016.4
20260504191603 79 0 0.0 3.5 0.00 0.02 0.01 34 1016.5
20260504190100 79 0 0.0 4.3 0.00 0.02 0.01 35 1016.6